Regional Weather Roundup
Issued by NWS

Home | Current Version | Previous Version | Text Only | Print | Product List | Glossary Off
Versions: 1 2 3 4 5 6 7 8 9 10 11 12 13 14 15 16 17 18 19 20 21 22 23 24 25 26 27 28 29 30 31 32 33 34 35 36 37 38 39 40 41 42 43 44 45 46 47 48 49 50

000
ASUS43 KIND 042259
RWRIN

WEATHER ROUNDUP FOR INDIANA
NATIONAL WEATHER SERVICE INDIANAPOLIS IN
700 PM EDT FRI SEP 04 2015

NOTE: "FAIR" INDICATES FEW OR NO CLOUDS BELOW 12,000 FEET WITH NO
SIGNIFICANT WEATHER AND/OR OBSTRUCTIONS TO VISIBILITY.

* - STATION DOES NOT REPORT WEATHER SUCH AS PRECIPITATION OR FOG.

+ - STATION NOT QUALITY CONTROLLED BY THE NATIONAL WEATHER SERVICE.
    USE DATA WITH CAUTION...ESPECIALLY DEWPOINT AND RELATIVE
    HUMIDITY OBSERVATIONS.

INZ001>003-010>013-019-020-050000-
NORTHWEST INDIANA

CITY           SKY/WX    TMP DP  RH WIND       PRES   REMARKS
GARY /AIRPORT/ PTSUNNY   75  68  78 NE12      30.04R
RENSSELAER +   PTSUNNY   73  66  78 N7        30.03S

$$

LMZ046-743>745-050000-
SOUTHERN LAKE MICHIGAN

STATION/POSITION TIME  TEMP    WIND        PRES    WAVE
                       AIR SEA DIR/SP/G            HT
                 (UTC) (F)     (DEG/KT/KT) (MB)    (FT)
BURNS HARBOR     2200   74      60/ 13/ 14 1016.9S
MICHIGAN CITY    2200   71      20/ 13/ 14   N/A
5NW MICH CITY    2200   72 74   60/ 10/ 12   N/A     1

$$

INZ004-005-014>016-021>024-050000-
NORTH CENTRAL INDIANA

CITY           SKY/WX    TMP DP  RH WIND       PRES   REMARKS
ELKHART        SUNNY     79  72  78 NW3       30.03S
GOSHEN         CLOUDY    73  65  75 SW3       30.04S
SOUTH BEND     CLOUDY    79  69  71 N3        30.04S

$$

INZ006>009-017-018-025>027-050000-
NORTHEAST INDIANA

CITY           SKY/WX    TMP DP  RH WIND       PRES   REMARKS
ANGOLA *+      PTSUNNY   75  72  88 CALM      30.04F
FORT WAYNE     LGT RAIN  66  63  90 CALM      30.04F

$$

INZ028-029-035-036-043>045-051>053-050000-
WEST CENTRAL INDIANA

CITY           SKY/WX    TMP DP  RH WIND       PRES   REMARKS
CRAWFORDSVL +  TSTM      68  64  85 CALM      30.07R VSB 1
GREENCASTLE +  PTSUNNY   88  63  42 CALM      30.01S
LAFAYETTE      CLOUDY    79  64  60 E5        30.01R
TERRE HAUTE    MOSUNNY   91  66  43 S7        29.99S

$$

INZ030>032-037>040-046>048-054>057-064-065-050000-
CENTRAL INDIANA

CITY           SKY/WX    TMP DP  RH WIND       PRES   REMARKS
FRANKFORT +    CLOUDY    76  70  83 CALM      30.04S
GREENWOOD *+   PTSUNNY   88  64  45 CALM      30.03R
INDIANAPOLIS   CLOUDY    85  65  51 NE17      30.02R THUNDER
-EAGLE CREEK   CLOUDY    82  66  58 N9        30.03R THUNDER
KOKOMO *+      CLOUDY    70  63  78 E8        30.06R
MT COMFORT *+  CLOUDY    68  63  83 N17G45    30.08R
SHELBYVILLE    PTSUNNY   81  64  56 NE7       30.03R
ZIONSVILLE +   CLOUDY    78  63  60 CALM      30.06R

$$

INZ033-034-041-042-049-050-058-059-050000-
EAST CENTRAL INDIANA

CITY           SKY/WX    TMP DP  RH WIND       PRES   REMARKS
MUNCIE         CLOUDY    70  63  78 S8        30.08R

$$

INZ060-061-067>069-081>083-085>088-050000-
SOUTHWEST INDIANA

CITY           SKY/WX    TMP DP  RH WIND       PRES   REMARKS
EVANSVILLE     SUNNY     92  64  39 NW5       30.00S
HUNTINGBURG *+ SUNNY     91  64  40 SW5       30.01S

$$

INZ062-063-066-070>080-084-089>092-050000-
SOUTH CENTRAL AND SOUTHEAST INDIANA

CITY           SKY/WX    TMP DP  RH WIND       PRES   REMARKS
BLOOMINGTON    SUNNY     89  67  47 SW5       30.02S
MADISON *+     SUNNY     88  64  45 CALM      30.04S
SEYMOUR +      MOSUNNY   93  68  43 W5        30.00S HX  97

$$




USA.gov is the U.S. government's official web portal to all federal, state and local government web resources and services.